Voltar ao catálogo

FENGYUN 1C DEB

AtivoPO
NORAD 31879·DEBRIS·🇨🇳 China

Lançado May 10, 1999 de Taiyuan Satellite Launch Center

Loading…

Próximas Passagens (próximas 24 horas)

TLE

AtualizadoSource: Space-Track

Época: Sep 14, 2026, 14:16 UTC

1 31879U 99025CKE 26257.59506429  .00000993  00000-0  24167-3 0  9999
2 31879  99.6851 179.1557 0206804 315.9173  42.5685 14.43623629671893

Acompanhe FENGYUN 1C DEB em tempo real com AllMySat

Download on the App Store